Regional Weather Roundup
Issued by NWS

Home | Current Version | Previous Version | Text Only | Print | Product List | Glossary Off
Versions: 1 2 3 4 5 6 7 8 9 10 11 12 13 14 15 16 17 18 19 20 21 22 23 24 25 26 27 28 29 30 31 32 33 34 35 36 37 38 39 40 41 42 43 44 45 46 47 48 49 50

000
ASUS45 KBOU 271907
RWRCO

WEATHER ROUNDUP FOR COLORADO
NATIONAL WEATHER SERVICE DENVER/BOULDER CO
100 PM MDT WED MAY 27 2015

NOTE: "FAIR" INDICATES FEW OR NO CLOUDS BELOW 12000 FEET WITH NO
SIGNIFICANT WEATHER AND/OR OBSTRUCTIONS TO VISIBILITY.

COZ001>005-013-030-031-272000-
...NORTHWEST COLORADO...

CITY           SKY/WX    TMP DP  RH WIND       PRES   REMARKS
CRAIG          PTSUNNY   65  41  41 W9        30.14F
HAYDEN         PTSUNNY   61  39  44 NW9       30.16F
MEEKER         LGT RAIN  61  42  49 W9        30.15F
MOUNT WERNER   NOT AVBL
STEAMBOAT SPGS PTSUNNY   59  42  53 NW5       30.18F
WALDEN         CLOUDY    55  32  41 W12G20    30.23S
$$

COZ006>008-011-272000-
...WEST CENTRAL VALLEYS...

CITY           SKY/WX    TMP DP  RH WIND       PRES   REMARKS
GRAND JUNCTION MOSUNNY   70  46  42 VRB5      30.09F
MONTROSE       MOSUNNY   70  41  34 MISG      30.13F
EAGLE          PTSUNNY   64  37  36 S12G18    30.17F
RIFLE          MOSUNNY   69  45  41 NE6       30.12F
DELTA          MOSUNNY   75  41  30 CALM      30.10F
NUCLA          MOSUNNY   70  39  32 W6        30.17F
$$

COZ017>023-064>068-272000-
...SOUTHWEST COLORADO...

CITY           SKY/WX    TMP DP  RH WIND       PRES   REMARKS
DURANGO        PTSUNNY   66  37  34 VRB5      30.19F
CORTEZ         SUNNY     72  39  30 SW8       30.14F
PAGOSA SPRINGS PTSUNNY   64  31  28 S5        30.25F
TELLURIDE      PTSUNNY   56  36  47 W12G18    30.30S
WOLF CREEK PAS NOT AVBL
$$

COZ009-010-012-014-032>034-037-058>063-272000-
...CENTRAL COLORADO...

CITY           SKY/WX    TMP DP  RH WIND       PRES   REMARKS
ASPEN          PTSUNNY   58  38  47 N14G20    30.22S
BUENA VISTA    PTSUNNY   64  30  28 W18       30.21F
COPPER MTN     FLURRIES  41  30  65 W10G18    30.43R
BERTHOUD PASS  PTSUNNY   34  28  80 NW18G31   30.44S WCI  23
COTTONWOOD PAS CLOUDY    55  30  38 N10G16    30.31S
GUNNISON       PTSUNNY   61  36  39 NW8       30.24S
KREMMLING      MOSUNNY   64  30  27 W8        30.19F
LEADVILLE      CLOUDY    49  27  42 VRB5      30.30S
MONARCH PASS   MOSUNNY   41  27  56 W28G44    30.52S
SALIDA         PTSUNNY   67  35  30 S15       30.25F
SUNLIGHT       CLOUDY    46  37  71 CALM      30.40S
WILKERSON PASS CLOUDY    45  27  49 W5        30.42R
$$

COZ069>075-272000-
...SAN LUIS VALLEY/SANGRE DE CRISTO MOUNTAINS...

CITY           SKY/WX    TMP DP  RH WIND       PRES   REMARKS
ALAMOSA        MOSUNNY   67  34  29 SW7       30.20F
LA VETA PASS   MOSUNNY  N/A N/A N/A MISG      30.37S
SAGUACHE       MOSUNNY   61  37  41 S9        30.24S
$$

COZ035-036-038>040-272000-
...NORTHERN COLORADO FRONT RANGE...

CITY           SKY/WX    TMP DP  RH WIND       PRES   REMARKS
DENVER INTL AP PTSUNNY   72  45  37 E8        30.07F
DMNS CITY PARK   N/A     74  39  28 E9        30.05F
AURORA         PTSUNNY   72  40  31 NE6       30.08F
FRONT RANGE AP PTSUNNY   70  41  35 CALM      30.08F
ERIE MUNI ARPT MOSUNNY   72  43  35 N3        30.05F
BOULDER MUN AP MOSUNNY   72  43  35 N12       30.05F
CENTENNIAL     PTSUNNY   71  39  31 NW9       30.08F
BROOMFIELD     PTSUNNY   70  46  43 E7        30.08F
FORT COLLINS   MOSUNNY   72  52  49 E8        30.06F
LONGMONT       MOSUNNY   75  45  34 E5        30.06F
$$

COZ041-046-047-076>085-087-088-272000-
...PIKES PEAK/PALMER DIVIDE AND SOUTHERN FOOTHILLS...

CITY           SKY/WX    TMP DP  RH WIND       PRES   REMARKS
COLO. SPRINGS  PTSUNNY   71  38  29 S16G24    30.11F
A. F. ACADEMY  PTSUNNY   69  36  30 SE5       30.10F
ELLICOTT       NOT AVBL
FALCON         MOSUNNY   68  36  31 S14       30.16F
FORT CARSON    NOT AVBL
LIMON          MOSUNNY   71  47  42 S13G22    30.07F
MONUMENT HILL  CLOUDY    63  39  42 E9        30.16S
TRINIDAD       MOSUNNY   70  44  39 SE9G21    30.10F
$$

COZ042>045-048>051-090-091-272000-
...NORTHEAST COLORADO...

CITY           SKY/WX    TMP DP  RH WIND       PRES   REMARKS
GREELEY ARPT   MOSUNNY   73  46  38 CALM      30.05F
AKRON          PTSUNNY   72  48  42 VRB6      30.04F
BURLINGTON     SUNNY     76  54  46 S18G26    30.06F
WRAY           PTSUNNY   73  58  59 SE14G21   30.03F
STERLING       MOSUNNY   73  54  49 CALM      30.01F
HOLYOKE        MOSUNNY   73  55  53 SE14      30.04F
FORT MORGAN    SUNNY     73  45  36 CALM      30.05F
$$

COZ086-089-092>099-272000-
...SOUTHEAST COLORADO...

CITY           SKY/WX    TMP DP  RH WIND       PRES   REMARKS
PUEBLO         SUNNY     73  51  46 SE6       30.05F
LA JUNTA       SUNNY     77  53  43 SW5       30.04F
LAMAR          MOSUNNY   80  53  39 MISG      30.02F
SPRINGFIELD      N/A     78  54  43 S13G21    30.07F
$$


USA.gov is the U.S. government's official web portal to all federal, state and local government web resources and services.